Regional Weather Roundup
Issued by NWS

Home | Current Version | Previous Version | Text Only | Print | Product List | Glossary Off
Versions: 1 2 3 4 5 6 7 8 9 10 11 12 13 14 15 16 17 18 19 20 21 22 23 24 25 26 27 28 29 30 31 32 33 34 35 36 37 38 39 40 41 42 43 44 45 46 47 48 49 50

487
ASUS43 KMKX 230500
RWRWI

WISCONSIN REGIONAL WEATHER ROUNDUP
NATIONAL WEATHER SERVICE MILWAUKEE/SULLIVAN WI
1100 PM CST WED FEB 22 2017

NOTE: "FAIR" INDICATES FEW OR NO CLOUDS BELOW 12,000 FEET WITH NO
SIGNIFICANT WEATHER AND/OR OBSTRUCTIONS TO VISIBILITY.

WIZ001-002-006>008-014>016-023>028-230600-
NORTHWEST WISCONSIN

CITY           SKY/WX    TMP DP  RH WIND       PRES   REMARKS
SUPERIOR ARPT  MIX PCPN  32  32 100 CALM      29.75R
ASHLAND        LGT SNOW  33  32  96 N9        29.73R FOG     WCI  25
HAYWARD        LGT RAIN  35  33  92 N7        29.69R WCI  29
SIREN          DRIZZLE   35  34  94 N9        29.73R WCI  28
CUMBERLAND     CLOUDY    36  32  87 N13       29.67R WCI  27
RICE LAKE      CLOUDY    38  36  91 N12G18    29.68R WCI  30
CHETEK         CLOUDY    39  36  89 N8G21     29.66R WCI  33
LADYSMITH      DRIZZLE   38  36  92 N15       29.64R WCI  29
EAU CLAIRE     NOT AVBL
MENOMONIE      CLOUDY    44  38  79 NW16G24   29.67R
NEW RICHMOND   CLOUDY    39  33  80 N14G21    29.70R WCI  31
OSCEOLA        CLOUDY    38  35  86 NW12      29.75R WCI  31
$$

WIZ003>005-009-010-017-018-230600-
NORTH CENTRAL WISCONSIN

CITY           SKY/WX    TMP DP  RH WIND       PRES   REMARKS
MANITOWISH WTR LGT SNOW  33  33 100 N13G18    29.58F WCI  24
ARBOR VITAE    LGT RAIN  37  36  96 NE7         N/A  WCI  31
WOODRUFF       LGT RAIN  37  36  96 NE7         N/A  WCI  31
RHINELANDER    FOG       41  41 100 N6        29.56S VSB 3/4
EAGLE RIVER    CLOUDY    37  37 100 N6        29.57R WCI  32
LAND O LAKES   LGT SNOW  34  34 100 NE6       29.62R WCI  29
PHILLIPS       LGT RAIN  36  35  97 N7        29.60R WCI  30
TOMAHAWK       FOG       38  37  97 CALM      29.57R VSB 1/4
MEDFORD        PTCLDY    35  34  96 CALM      29.55S FOG
MERRILL        NOT AVBL
$$

WIZ029-030-035-036-043>047-230600-
CENTRAL WISCONSIN

CITY           SKY/WX    TMP DP  RH WIND       PRES   REMARKS
WAUSAU         CLOUDY    37  35  92 CALM      29.53F
MOSINEE        MOCLDY    37  37 100 CALM      29.56F
MARSHFIELD     PTCLDY    40  35  83 W8        29.55S WCI  34
STEVENS POINT  CLEAR     31  30  94 CALM      29.57S
WAUPACA        CLEAR     39  35  84 CALM      29.55F
WAUTOMA        NOT AVBL
WISC RAPIDS    CLEAR     34  33  96 SW3       29.58R
CAMP DOUGLAS   NOT AVBL
$$

WIZ011>013-019>022-031-037>040-048>050-230600-
NORTHEAST WISCONSIN

CITY           SKY/WX    TMP DP  RH WIND       PRES   REMARKS
ANTIGO         MOCLDY    32  32 100 CALM      29.56R
SHAWANO        CLEAR     40  37  87 CALM      29.55S
OCONTO         CLEAR     38  37  96 N3        29.54R
STURGEON BAY   PTCLDY    38  37  97 NW6       29.53R FOG     WCI  33
GREEN BAY      CLEAR     40  40 100 NW5       29.53R
MANITOWOC      FOG       37  37 100 W3        29.52S VSB 1
APPLETON       PTCLDY    41  39  93 NW8       29.52S
CLINTONVILLE   PTCLDY    36  34  93 NW3       29.55S
OSHKOSH        CLEAR     46  41  82 W6        29.54R
$$

WIZ032>034-041-042-053>061-230600-
SOUTHWEST WISCONSIN

CITY           SKY/WX    TMP DP  RH WIND       PRES   REMARKS
LA CROSSE      CLEAR     48  41  76 NW7       29.63R
SPARTA         CLEAR     40  39  99 SW5       29.62R
VIROQUA        CLEAR     47  44  88 W10       29.63R
BOSCOBEL       CLEAR     50  43  77 S6        29.63R
PRAIRIE DU CHI CLEAR     49  42  77 CALM      29.64R
PLATTEVILLE    CLEAR     48  44  87 W9        29.64S
$$

WIZ056-057-062-063-064-067-068-230600-
SOUTH CENTRAL WISCONSIN

CITY           SKY/WX    TMP DP  RH WIND       PRES   REMARKS
REEDSBURG      CLEAR     47  42  82 W6        29.59R
BARABOO/DELLS  CLEAR     49  40  69 W5        29.59R
LONE ROCK      NOT AVBL
MINERAL POINT  PTCLDY    50  45  81 W7        29.62R
MADISON        CLEAR     53  43  68 W6        29.59R
MIDDLETON      CLEAR     52  43  72 W9        29.60R
WATERTOWN      CLEAR     55  50  86 SW9       29.56R
MONROE         CLEAR     52  43  71 W15       29.61S
JANESVILLE     CLEAR     54  52  94 W8        29.61R
$$

WIZ051-052-058>065-066-070>072-230600-
SOUTHEAST WISCONSIN

CITY           SKY/WX    TMP DP  RH WIND       PRES   REMARKS
MILWAUKEE      CLEAR     59  52  77 SW16G26   29.55S
WAUKESHA       CLEAR     52  48  87 SW9       29.57R
MILWAUKEE/TIMM CLEAR     55  46  71 SW13G18   29.56R
RACINE         PTCLDY    58  52  80 SW16G24   29.57F
KENOSHA        CLEAR     57  52  83 SW18G28   29.57S
FOND DU LAC    CLEAR     49  39  68 W7        29.55R
SHEBOYGAN      CLEAR     47  45  93 W9        29.52R
WEST BEND      CLEAR     55  50  82 W13G20    29.53R
JUNEAU         CLEAR     50  48  93 SW9       29.57R
$$

LSZ147-162-230600-
LAKE SUPERIOR

STATION/POSITION TIME  TEMP    WIND        PRES    WAVE
                       AIR SEA DIR/SP/G            HT/PER
                 (UTC) (F)     (DEG/KT/KT) (MB)    (FT/S)
DEVILS ISLAND    0400   32     350/ 14/ 15 1007.1R
PORT WING        0430   32     320/  2/  3 1007.5S
SAXON HARBOR     0440   33     360/ 13/ 15 1005.8R
$$

LMZ867-665-643>646-230600-
LAKE MICHIGAN

STATION/POSITION TIME  TEMP    WIND        PRES    WAVE
                       AIR SEA DIR/SP/G            HT/PER
                 (UTC) (F)     (DEG/KT/KT) (MB)    (FT/S)
CHAMBERS ISLAND  0440   34     340/  9/ 11 1000.0S
NORTHPORT PIER   0440   36     320/  6/ 11 1000.0S
SISTER BAY       0350   42      CALM  /  3   N/A
KEWAUNEE LAKESHO 0430   38     310/  4/  6  999.1F
SHEBOYGAN LAKESH 0400   44     190/ 11/ 11  999.6F
PORT WASHINGTON  0440   59     250/ 10/ 16 1000.7S
MILWAUKEE LAKESH 0430   58     230/ 16/ 19   N/A
KENOSHA   LAKESH 0400   60     230/ 11/ 17 1001.7
$$

TC  - TEMPERATURE IN CELSIUS
VSB - VISIBILITY IN STATUTE MILES
WCI - WIND CHILL INDEX
HX  - HEAT INDEX





USA.gov is the U.S. government's official web portal to all federal, state and local government web resources and services.